Year,Month,Day,Hour,Minute,Value (Times are PST for temperature in C)
2014,04,28,00,00,7.70
2014,04,28,00,01,7.70
2014,04,28,00,02,7.70
2014,04,28,00,03,7.70
2014,04,28,00,04,7.70
2014,04,28,00,05,7.70
2014,04,28,00,06,7.70
2014,04,28,00,07,7.70
2014,04,28,00,08,7.70
2014,04,28,00,09,7.70
2014,04,28,00,10,7.70
2014,04,28,00,11,7.70
2014,04,28,00,12,7.70
2014,04,28,00,13,7.70
2014,04,28,00,14,7.70
2014,04,28,00,15,7.60
2014,04,28,00,16,7.60
2014,04,28,00,17,7.60
2014,04,28,00,18,7.60
2014,04,28,00,19,7.60
2014,04,28,00,20,7.50
2014,04,28,00,21,7.50
2014,04,28,00,22,7.40
2014,04,28,00,23,7.40
2014,04,28,00,24,7.40
2014,04,28,00,25,7.30
2014,04,28,00,26,7.30
2014,04,28,00,27,7.20
2014,04,28,00,28,7.20
2014,04,28,00,29,7.20
2014,04,28,00,30,7.20
2014,04,28,00,31,7.20
2014,04,28,00,32,7.20
2014,04,28,00,33,7.20
2014,04,28,00,34,7.20
2014,04,28,00,35,7.20
2014,04,28,00,36,7.10
2014,04,28,00,37,7.10
2014,04,28,00,38,7.10
2014,04,28,00,39,7.10
2014,04,28,00,40,7.10
2014,04,28,00,41,7.10
2014,04,28,00,42,7.10
2014,04,28,00,43,7.10
2014,04,28,00,44,7.10
2014,04,28,00,45,7.10
2014,04,28,00,46,7.10
2014,04,28,00,47,7.10
2014,04,28,00,48,7.10
2014,04,28,00,49,7.10
2014,04,28,00,50,7.10
2014,04,28,00,51,7.10
2014,04,28,00,52,7.10
2014,04,28,00,53,7.10
2014,04,28,00,54,7.20
2014,04,28,00,55,7.20
2014,04,28,00,56,7.20
2014,04,28,00,57,7.20
2014,04,28,00,58,7.20
2014,04,28,00,59,7.20
2014,04,28,01,00,7.20
2014,04,28,01,01,7.20
2014,04,28,01,02,7.30
2014,04,28,01,03,7.30
2014,04,28,01,04,7.30
2014,04,28,01,05,7.30
2014,04,28,01,06,7.30
2014,04,28,01,07,7.40
2014,04,28,01,08,7.40
2014,04,28,01,09,7.40
2014,04,28,01,10,7.40
2014,04,28,01,11,7.40
2014,04,28,01,12,7.40
2014,04,28,01,13,7.40
2014,04,28,01,14,7.40
2014,04,28,01,15,7.40
2014,04,28,01,16,7.40
2014,04,28,01,17,7.40
2014,04,28,01,18,7.40
2014,04,28,01,19,7.40
2014,04,28,01,20,7.40
2014,04,28,01,21,7.40
2014,04,28,01,22,7.30
2014,04,28,01,23,7.30
2014,04,28,01,24,7.30
2014,04,28,01,25,7.30
2014,04,28,01,26,7.30
2014,04,28,01,27,7.30
2014,04,28,01,28,7.30
2014,04,28,01,29,7.30
2014,04,28,01,30,7.20
2014,04,28,01,31,7.20
2014,04,28,01,32,7.20
2014,04,28,01,33,7.20
2014,04,28,01,34,7.20
2014,04,28,01,35,7.20
2014,04,28,01,36,7.20
2014,04,28,01,37,7.20
2014,04,28,01,38,7.20
2014,04,28,01,39,7.10
2014,04,28,01,40,7.10
2014,04,28,01,41,7.10
2014,04,28,01,42,7.10
2014,04,28,01,43,7.10
2014,04,28,01,44,7.10
2014,04,28,01,45,7.10
2014,04,28,01,46,7.10
2014,04,28,01,47,7.10
2014,04,28,01,48,7.10
2014,04,28,01,49,7.10
2014,04,28,01,50,7.10
2014,04,28,01,51,7.10
2014,04,28,01,52,7.20
2014,04,28,01,53,7.20
2014,04,28,01,54,7.20
2014,04,28,01,55,7.20
2014,04,28,01,56,7.20
2014,04,28,01,57,7.20
2014,04,28,01,58,7.30
2014,04,28,01,59,7.30
2014,04,28,02,00,7.30
2014,04,28,02,01,7.40
2014,04,28,02,02,7.40
2014,04,28,02,03,7.40
2014,04,28,02,04,7.40
2014,04,28,02,05,7.40
2014,04,28,02,06,7.40
2014,04,28,02,07,7.50
2014,04,28,02,08,7.50
2014,04,28,02,09,7.50
2014,04,28,02,10,7.50
2014,04,28,02,11,7.50
2014,04,28,02,12,7.50
2014,04,28,02,13,7.50
2014,04,28,02,14,7.50
2014,04,28,02,15,7.50
2014,04,28,02,16,7.60
2014,04,28,02,17,7.60
2014,04,28,02,18,7.60
2014,04,28,02,19,7.60
2014,04,28,02,20,7.60
2014,04,28,02,21,7.60
2014,04,28,02,22,7.60
2014,04,28,02,23,7.60
2014,04,28,02,24,7.60
2014,04,28,02,25,7.60
2014,04,28,02,26,7.60
2014,04,28,02,27,7.50
2014,04,28,02,28,7.50
2014,04,28,02,29,7.50
2014,04,28,02,30,7.40
2014,04,28,02,31,7.40
2014,04,28,02,32,7.40
2014,04,28,02,33,7.40
2014,04,28,02,34,7.40
2014,04,28,02,35,7.40
2014,04,28,02,36,7.40
2014,04,28,02,37,7.40
2014,04,28,02,38,7.30
2014,04,28,02,39,7.30
2014,04,28,02,40,7.30
2014,04,28,02,41,7.30
2014,04,28,02,42,7.30
2014,04,28,02,43,7.30
2014,04,28,02,44,7.30
2014,04,28,02,45,7.30
2014,04,28,02,46,7.30
2014,04,28,02,47,7.40
2014,04,28,02,48,7.40
2014,04,28,02,49,7.40
2014,04,28,02,50,7.40
2014,04,28,02,51,7.40
2014,04,28,02,52,7.40
2014,04,28,02,53,7.40
2014,04,28,02,54,7.40
2014,04,28,02,55,7.40
2014,04,28,02,56,7.40
2014,04,28,02,57,7.40
2014,04,28,02,58,7.40
2014,04,28,02,59,7.40
2014,04,28,03,00,7.40
2014,04,28,03,01,7.40
2014,04,28,03,02,7.40
2014,04,28,03,03,7.30
2014,04,28,03,04,7.30
2014,04,28,03,05,7.30
2014,04,28,03,06,7.30
2014,04,28,03,07,7.30
2014,04,28,03,08,7.30
2014,04,28,03,09,7.30
2014,04,28,03,10,7.30
2014,04,28,03,11,7.30
2014,04,28,03,12,7.30
2014,04,28,03,13,7.30
2014,04,28,03,14,7.20
2014,04,28,03,15,7.20
2014,04,28,03,16,7.20
2014,04,28,03,17,7.20
2014,04,28,03,18,7.20
2014,04,28,03,19,7.20
2014,04,28,03,20,7.20
2014,04,28,03,21,7.20
2014,04,28,03,22,7.20
2014,04,28,03,23,7.20
2014,04,28,03,24,7.20
2014,04,28,03,25,7.10
2014,04,28,03,26,7.10
2014,04,28,03,27,7.10
2014,04,28,03,28,7.10
2014,04,28,03,29,7.10
2014,04,28,03,30,7.10
2014,04,28,03,31,7.10
2014,04,28,03,32,7.10
2014,04,28,03,33,7.10
2014,04,28,03,34,7.00
2014,04,28,03,35,7.00
2014,04,28,03,36,7.00
2014,04,28,03,37,7.00
2014,04,28,03,38,7.00
2014,04,28,03,39,7.00
2014,04,28,03,40,7.00
2014,04,28,03,41,7.00
2014,04,28,03,42,6.90
2014,04,28,03,43,6.90
2014,04,28,03,44,6.90
2014,04,28,03,45,6.90
2014,04,28,03,46,6.90
2014,04,28,03,47,6.80
2014,04,28,03,48,6.80
2014,04,28,03,49,6.80
2014,04,28,03,50,6.80
2014,04,28,03,51,6.70
2014,04,28,03,52,6.70
2014,04,28,03,53,6.70
2014,04,28,03,54,6.70
2014,04,28,03,55,6.60
2014,04,28,03,56,6.60
2014,04,28,03,57,6.60
2014,04,28,03,58,6.50
2014,04,28,03,59,6.50
2014,04,28,04,00,6.50
2014,04,28,04,01,6.40
2014,04,28,04,02,6.40
2014,04,28,04,03,6.40
2014,04,28,04,04,6.40
2014,04,28,04,05,6.40
2014,04,28,04,06,6.40
2014,04,28,04,07,6.30
2014,04,28,04,08,6.30
2014,04,28,04,09,6.30
2014,04,28,04,10,6.30
2014,04,28,04,11,6.30
2014,04,28,04,12,6.20
2014,04,28,04,13,6.20
2014,04,28,04,14,6.20
2014,04,28,04,15,6.20
2014,04,28,04,16,6.20
2014,04,28,04,17,6.10
2014,04,28,04,18,6.10
2014,04,28,04,19,6.10
2014,04,28,04,20,6.10
2014,04,28,04,21,6.00
2014,04,28,04,22,6.00
2014,04,28,04,23,6.00
2014,04,28,04,24,5.90
2014,04,28,04,25,5.90
2014,04,28,04,26,5.80
2014,04,28,04,27,5.80
2014,04,28,04,28,5.80
2014,04,28,04,29,5.80
2014,04,28,04,30,5.80
2014,04,28,04,31,5.80
2014,04,28,04,32,5.80
2014,04,28,04,33,5.80
2014,04,28,04,34,5.80
2014,04,28,04,35,5.80
2014,04,28,04,36,5.80
2014,04,28,04,37,5.80
2014,04,28,04,38,5.90
2014,04,28,04,39,5.90
2014,04,28,04,40,5.90
2014,04,28,04,41,5.90
2014,04,28,04,42,5.90
2014,04,28,04,43,5.90
2014,04,28,04,44,5.90
2014,04,28,04,45,5.90
2014,04,28,04,46,5.90
2014,04,28,04,47,5.80
2014,04,28,04,48,5.80
2014,04,28,04,49,5.80
2014,04,28,04,50,5.80
2014,04,28,04,51,5.80
2014,04,28,04,52,5.70
2014,04,28,04,53,5.70
2014,04,28,04,54,5.70
2014,04,28,04,55,5.70
2014,04,28,04,56,5.70
2014,04,28,04,57,5.70
2014,04,28,04,58,5.70
2014,04,28,04,59,5.70
2014,04,28,05,00,5.70
2014,04,28,05,01,5.70
2014,04,28,05,02,5.60
2014,04,28,05,03,5.60
2014,04,28,05,04,5.60
2014,04,28,05,05,5.60
2014,04,28,05,06,5.60
2014,04,28,05,07,5.60
2014,04,28,05,08,5.60
2014,04,28,05,09,5.60
2014,04,28,05,10,5.50
2014,04,28,05,11,5.50
2014,04,28,05,12,5.50
2014,04,28,05,13,5.50
2014,04,28,05,14,5.50
2014,04,28,05,15,5.40
2014,04,28,05,16,5.40
2014,04,28,05,17,5.40
2014,04,28,05,18,5.40
2014,04,28,05,19,5.40
2014,04,28,05,20,5.30
2014,04,28,05,21,5.30
2014,04,28,05,22,5.30
2014,04,28,05,23,5.40
2014,04,28,05,24,5.40
2014,04,28,05,25,5.40
2014,04,28,05,26,5.30
2014,04,28,05,27,5.30
2014,04,28,05,28,5.30
2014,04,28,05,29,5.30
2014,04,28,05,30,5.30
2014,04,28,05,31,5.30
2014,04,28,05,32,5.30
2014,04,28,05,33,5.30
2014,04,28,05,34,5.30
2014,04,28,05,35,5.30
2014,04,28,05,36,5.30
2014,04,28,05,37,5.30
2014,04,28,05,38,5.30
2014,04,28,05,39,5.30
2014,04,28,05,40,5.30
2014,04,28,05,41,5.30
2014,04,28,05,42,5.30
2014,04,28,05,43,5.30
2014,04,28,05,44,5.40
2014,04,28,05,45,5.40
2014,04,28,05,46,5.40
2014,04,28,05,47,5.40
2014,04,28,05,48,5.40
2014,04,28,05,49,5.50
2014,04,28,05,50,5.50
2014,04,28,05,51,5.50
2014,04,28,05,52,5.50
2014,04,28,05,53,5.50
2014,04,28,05,54,5.60
2014,04,28,05,55,5.60
2014,04,28,05,56,5.60
2014,04,28,05,57,5.60
2014,04,28,05,58,5.60
2014,04,28,05,59,5.50
2014,04,28,06,00,5.50
2014,04,28,06,01,5.50
2014,04,28,06,02,5.50
2014,04,28,06,03,5.50
2014,04,28,06,04,5.40
2014,04,28,06,05,5.40
2014,04,28,06,06,5.40
2014,04,28,06,07,5.30
2014,04,28,06,08,5.30
2014,04,28,06,09,5.20
2014,04,28,06,10,5.20
2014,04,28,06,11,5.10
2014,04,28,06,12,5.10
2014,04,28,06,13,5.10
2014,04,28,06,14,5.00
2014,04,28,06,15,5.00
2014,04,28,06,16,5.00
2014,04,28,06,17,5.00
2014,04,28,06,18,5.00
2014,04,28,06,19,4.90
2014,04,28,06,20,5.00
2014,04,28,06,21,5.00
2014,04,28,06,22,5.00
2014,04,28,06,23,5.00
2014,04,28,06,24,4.90
2014,04,28,06,25,4.90
2014,04,28,06,26,5.00
2014,04,28,06,27,5.00
2014,04,28,06,28,5.10
2014,04,28,06,29,5.10
2014,04,28,06,30,5.20
2014,04,28,06,31,5.20
2014,04,28,06,32,5.30
2014,04,28,06,33,5.30
2014,04,28,06,34,5.30
2014,04,28,06,35,5.30
2014,04,28,06,36,5.40
2014,04,28,06,37,5.40
2014,04,28,06,38,5.40
2014,04,28,06,39,5.40
2014,04,28,06,40,5.40
2014,04,28,06,41,5.40
2014,04,28,06,42,5.40
2014,04,28,06,43,5.40
2014,04,28,06,44,5.40
2014,04,28,06,45,5.40
2014,04,28,06,46,5.40
2014,04,28,06,47,5.30
2014,04,28,06,48,5.30
2014,04,28,06,49,5.30
2014,04,28,06,50,5.30
2014,04,28,06,51,5.30
2014,04,28,06,52,5.30
2014,04,28,06,53,5.30
2014,04,28,06,54,5.30
2014,04,28,06,55,5.30
2014,04,28,06,56,5.40
2014,04,28,06,57,5.40
2014,04,28,06,58,5.40
2014,04,28,06,59,5.40
2014,04,28,07,00,5.50
2014,04,28,07,01,5.50
2014,04,28,07,02,5.60
2014,04,28,07,03,5.60
2014,04,28,07,04,5.60
2014,04,28,07,05,5.70
2014,04,28,07,06,5.70
2014,04,28,07,07,5.80
2014,04,28,07,08,5.80
2014,04,28,07,09,5.90
2014,04,28,07,10,5.90
2014,04,28,07,11,5.90
2014,04,28,07,12,6.00
2014,04,28,07,13,6.00
2014,04,28,07,14,6.00
2014,04,28,07,15,6.10
2014,04,28,07,16,6.10
2014,04,28,07,17,6.10
2014,04,28,07,18,6.10
2014,04,28,07,19,6.20
2014,04,28,07,20,6.20
2014,04,28,07,21,6.20
2014,04,28,07,22,6.30
2014,04,28,07,23,6.30
2014,04,28,07,24,6.40
2014,04,28,07,25,6.40
2014,04,28,07,26,6.50
2014,04,28,07,27,6.60
2014,04,28,07,28,6.60
2014,04,28,07,29,6.60
2014,04,28,07,30,6.60
2014,04,28,07,31,6.70
2014,04,28,07,32,6.70
2014,04,28,07,33,6.70
2014,04,28,07,34,6.80
2014,04,28,07,35,6.80
2014,04,28,07,36,6.80
2014,04,28,07,37,6.90
2014,04,28,07,38,6.90
2014,04,28,07,39,6.90
2014,04,28,07,40,6.90
2014,04,28,07,41,7.00
2014,04,28,07,42,7.00
2014,04,28,07,43,7.10
2014,04,28,07,44,7.10
2014,04,28,07,45,7.20
2014,04,28,07,46,7.20
2014,04,28,07,47,7.20
2014,04,28,07,48,7.20
2014,04,28,07,49,7.30
2014,04,28,07,50,7.30
2014,04,28,07,51,7.30
2014,04,28,07,52,7.40
2014,04,28,07,53,7.40
2014,04,28,07,54,7.50
2014,04,28,07,55,7.60
2014,04,28,09,00,9.90
2014,04,28,09,01,10.00
2014,04,28,09,02,10.10
2014,04,28,09,03,10.20
2014,04,28,09,12,10.80
2014,04,28,09,13,10.80
2014,04,28,09,14,10.90
2014,04,28,09,15,11.00
2014,04,28,09,16,11.00
2014,04,28,09,17,11.00
2014,04,28,09,18,11.10
2014,04,28,09,19,11.10
2014,04,28,09,20,11.20
2014,04,28,09,21,11.20
2014,04,28,09,22,11.20
2014,04,28,09,23,11.20
2014,04,28,09,24,11.30
2014,04,28,09,25,11.30
2014,04,28,09,26,11.30
2014,04,28,09,27,11.40
2014,04,28,09,28,11.40
2014,04,28,09,29,11.40
2014,04,28,09,30,11.50
2014,04,28,09,31,11.50
2014,04,28,09,32,11.60
2014,04,28,09,33,11.60
2014,04,28,09,34,11.60
2014,04,28,09,35,11.60
2014,04,28,09,36,11.70
2014,04,28,09,37,11.80
2014,04,28,09,38,11.80
2014,04,28,09,39,11.70
2014,04,28,09,40,11.70
2014,04,28,09,41,11.70
2014,04,28,09,42,11.80
2014,04,28,09,43,11.80
2014,04,28,09,44,11.80
2014,04,28,09,45,11.90
2014,04,28,09,46,11.90
2014,04,28,09,47,11.90
2014,04,28,09,48,11.80
2014,04,28,09,49,11.80
2014,04,28,09,50,11.80
2014,04,28,09,51,11.80
2014,04,28,09,52,11.80
2014,04,28,09,53,11.80
2014,04,28,09,54,11.70
2014,04,28,09,55,11.70
2014,04,28,09,56,11.80
2014,04,28,09,57,11.80
2014,04,28,09,58,11.80
2014,04,28,09,59,11.80
2014,04,28,10,00,11.90
2014,04,28,10,01,11.90
2014,04,28,10,02,12.00
2014,04,28,10,03,12.10
2014,04,28,10,04,12.10
2014,04,28,10,05,12.20
2014,04,28,10,06,12.20
2014,04,28,10,07,12.20
2014,04,28,10,08,12.20
2014,04,28,10,09,12.20
2014,04,28,10,10,12.20
2014,04,28,10,11,12.10
2014,04,28,10,12,12.10
2014,04,28,10,13,12.00
2014,04,28,10,14,12.00
2014,04,28,10,15,12.10
2014,04,28,10,16,12.10
2014,04,28,10,17,12.20
2014,04,28,10,18,12.20
2014,04,28,10,19,12.10
2014,04,28,10,20,12.10
2014,04,28,10,21,12.00
2014,04,28,10,22,11.90
2014,04,28,10,23,12.00
2014,04,28,10,24,12.00
2014,04,28,10,25,12.00
2014,04,28,10,26,12.00
2014,04,28,10,27,12.00
2014,04,28,10,28,12.00
2014,04,28,10,29,12.10
2014,04,28,10,30,12.20
2014,04,28,10,31,12.40
2014,04,28,10,32,12.50
2014,04,28,10,33,12.60
2014,04,28,10,34,12.80
2014,04,28,10,35,12.80
2014,04,28,10,36,12.80
2014,04,28,10,37,12.80
2014,04,28,10,38,12.80
2014,04,28,10,39,12.80
2014,04,28,10,40,12.80
2014,04,28,10,41,12.80
2014,04,28,10,42,12.70
2014,04,28,10,43,12.60
2014,04,28,10,44,12.50
2014,04,28,10,45,12.50
2014,04,28,10,46,12.50
2014,04,28,10,47,12.40
2014,04,28,10,48,12.50
2014,04,28,10,49,12.50
2014,04,28,10,50,12.60
2014,04,28,10,51,12.60
2014,04,28,10,52,12.80
2014,04,28,10,53,12.80
2014,04,28,10,54,12.80
2014,04,28,10,55,12.90
2014,04,28,10,56,13.00
2014,04,28,10,57,13.00
2014,04,28,10,58,12.90
2014,04,28,10,59,12.90
2014,04,28,11,00,12.80
2014,04,28,11,01,12.90
2014,04,28,11,02,12.90
2014,04,28,11,03,13.00
2014,04,28,11,04,13.10
2014,04,28,11,05,13.10
2014,04,28,11,06,13.20
2014,04,28,11,07,13.20
2014,04,28,11,08,13.30
2014,04,28,11,09,13.20
2014,04,28,11,10,13.20
2014,04,28,11,11,13.10
2014,04,28,11,12,13.10
2014,04,28,11,13,13.00
2014,04,28,11,14,13.00
2014,04,28,11,15,13.00
2014,04,28,11,16,13.00
2014,04,28,11,17,13.00
2014,04,28,11,18,13.20
2014,04,28,11,19,13.20
2014,04,28,11,20,13.30
2014,04,28,11,21,13.40
2014,04,28,11,22,13.50
2014,04,28,11,23,13.50
2014,04,28,11,24,13.40
2014,04,28,11,25,13.40
2014,04,28,11,26,13.30
2014,04,28,11,27,13.30
2014,04,28,11,28,13.30
2014,04,28,11,29,13.40
2014,04,28,11,30,13.40
2014,04,28,11,31,13.30
2014,04,28,11,32,13.30
2014,04,28,11,33,13.30
2014,04,28,11,34,13.40
2014,04,28,11,35,13.40
2014,04,28,11,36,13.40
2014,04,28,11,37,13.40
2014,04,28,11,38,13.40
2014,04,28,11,39,13.40
2014,04,28,11,40,13.50
2014,04,28,11,41,13.50
2014,04,28,11,42,13.50
2014,04,28,11,43,13.50
2014,04,28,11,44,13.40
2014,04,28,11,45,13.30
2014,04,28,11,46,13.20
2014,04,28,11,47,13.20
2014,04,28,11,48,13.20
2014,04,28,11,49,13.20
2014,04,28,11,50,13.30
2014,04,28,11,51,13.30
2014,04,28,11,52,13.30
2014,04,28,11,53,13.30
2014,04,28,11,54,13.40
2014,04,28,11,55,13.40
2014,04,28,11,56,13.40
2014,04,28,11,57,13.40
2014,04,28,11,58,13.30
2014,04,28,11,59,13.30
2014,04,28,12,00,13.30
2014,04,28,12,01,13.30
2014,04,28,12,02,13.30
2014,04,28,12,03,13.40
2014,04,28,12,04,13.40
2014,04,28,12,05,13.40
2014,04,28,12,06,13.40
2014,04,28,12,07,13.40
2014,04,28,12,08,13.40
2014,04,28,12,09,13.50
2014,04,28,12,10,13.50
2014,04,28,12,11,13.60
2014,04,28,12,12,13.60
2014,04,28,12,13,13.60
2014,04,28,12,14,13.60
2014,04,28,12,15,13.70
2014,04,28,12,16,13.80
2014,04,28,12,17,13.80
2014,04,28,12,18,13.70
2014,04,28,12,19,13.60
2014,04,28,12,20,13.70
2014,04,28,12,21,13.70
2014,04,28,12,22,13.70
2014,04,28,12,23,13.70
2014,04,28,12,24,13.80
2014,04,28,12,25,13.90
2014,04,28,12,26,14.00
2014,04,28,12,27,14.10
2014,04,28,12,28,14.20
2014,04,28,12,29,14.20
2014,04,28,12,30,14.10
2014,04,28,12,31,14.00
2014,04,28,12,32,13.90
2014,04,28,12,33,13.80
2014,04,28,12,34,13.60
2014,04,28,12,35,13.60
2014,04,28,12,36,13.50
2014,04,28,12,37,13.60
2014,04,28,12,38,13.60
2014,04,28,12,39,13.60
2014,04,28,12,40,13.70
2014,04,28,12,41,13.70
2014,04,28,12,42,13.70
2014,04,28,12,43,13.60
2014,04,28,12,44,13.60
2014,04,28,12,45,13.60
2014,04,28,12,46,13.60
2014,04,28,12,47,13.60
2014,04,28,12,48,13.60
2014,04,28,12,49,13.60
2014,04,28,12,50,13.60
2014,04,28,12,51,13.60
2014,04,28,12,52,13.70
2014,04,28,12,53,13.70
2014,04,28,12,54,13.80
2014,04,28,12,55,13.80
2014,04,28,12,56,13.80
2014,04,28,12,57,13.80
2014,04,28,12,58,13.70
2014,04,28,12,59,13.70
2014,04,28,13,00,13.70
2014,04,28,13,01,13.60
2014,04,28,13,02,13.60
2014,04,28,13,03,13.70
2014,04,28,13,04,13.70
2014,04,28,13,05,13.70
2014,04,28,13,06,13.70
2014,04,28,13,07,13.70
2014,04,28,13,08,13.70
2014,04,28,13,09,13.70
2014,04,28,13,10,13.70
2014,04,28,13,11,13.70
2014,04,28,13,12,13.70
2014,04,28,13,13,13.80
2014,04,28,13,14,13.90
2014,04,28,13,15,13.90
2014,04,28,13,16,13.90
2014,04,28,13,17,13.80
2014,04,28,13,18,13.80
2014,04,28,13,19,13.70
2014,04,28,13,20,13.80
2014,04,28,13,21,13.80
2014,04,28,13,22,13.80
2014,04,28,13,23,13.70
2014,04,28,13,24,13.80
2014,04,28,13,25,13.80
2014,04,28,13,26,13.80
2014,04,28,13,27,13.90
2014,04,28,13,28,14.00
2014,04,28,13,29,14.00
2014,04,28,13,30,14.10
2014,04,28,13,31,14.10
2014,04,28,13,32,14.10
2014,04,28,13,33,14.10
2014,04,28,13,34,14.20
2014,04,28,13,35,14.30
2014,04,28,13,36,14.30
2014,04,28,13,37,14.20
2014,04,28,13,38,14.10
2014,04,28,13,39,14.10
2014,04,28,13,40,14.10
2014,04,28,13,41,14.10
2014,04,28,13,42,14.20
2014,04,28,13,43,14.10
2014,04,28,13,44,14.10
2014,04,28,13,45,14.10
2014,04,28,13,46,14.20
2014,04,28,13,47,14.10
2014,04,28,13,48,14.00
2014,04,28,13,49,13.90
2014,04,28,13,50,13.90
2014,04,28,13,51,14.00
2014,04,28,13,52,14.00
2014,04,28,13,53,13.90
2014,04,28,13,54,14.00
2014,04,28,13,55,14.10
2014,04,28,13,56,14.10
2014,04,28,13,57,14.10
2014,04,28,13,58,14.10
2014,04,28,13,59,14.10
2014,04,28,14,00,14.20
2014,04,28,14,01,14.20
2014,04,28,14,02,14.10
2014,04,28,14,03,14.00
2014,04,28,14,04,14.00
2014,04,28,14,05,14.00
2014,04,28,14,06,14.00
2014,04,28,14,07,14.00
2014,04,28,14,08,14.10
2014,04,28,14,09,14.20
2014,04,28,14,10,14.30
2014,04,28,14,11,14.30
2014,04,28,14,12,14.20
2014,04,28,14,13,14.20
2014,04,28,14,14,14.30
2014,04,28,14,15,14.30
2014,04,28,14,16,14.30
2014,04,28,14,17,14.30
2014,04,28,14,18,14.30
2014,04,28,14,19,14.30
2014,04,28,14,20,14.20
2014,04,28,14,21,14.20
2014,04,28,14,22,14.20
2014,04,28,14,23,14.20
2014,04,28,14,24,14.20
2014,04,28,14,25,14.20
2014,04,28,14,26,14.20
2014,04,28,14,27,14.30
2014,04,28,14,28,14.40
2014,04,28,14,29,14.30
2014,04,28,14,30,14.20
2014,04,28,14,31,14.10
2014,04,28,14,32,14.10
2014,04,28,14,33,14.00
2014,04,28,14,34,14.00
2014,04,28,14,35,13.90
2014,04,28,14,36,13.90
2014,04,28,14,37,14.00
2014,04,28,14,38,14.00
2014,04,28,14,39,14.00
2014,04,28,14,40,14.00
2014,04,28,14,41,14.10
2014,04,28,14,42,14.20
2014,04,28,14,43,14.20
2014,04,28,14,44,14.20
2014,04,28,14,45,14.20
2014,04,28,14,46,14.20
2014,04,28,14,47,14.20
2014,04,28,14,48,14.20
2014,04,28,14,49,14.20
2014,04,28,14,50,14.10
2014,04,28,14,51,14.10
2014,04,28,14,52,14.10
2014,04,28,14,53,14.10
2014,04,28,14,54,14.20
2014,04,28,14,55,14.20
2014,04,28,14,56,14.20
2014,04,28,14,57,14.20
2014,04,28,14,58,14.20
2014,04,28,14,59,14.20
2014,04,28,15,00,14.10
2014,04,28,15,01,14.00
2014,04,28,15,02,14.00
2014,04,28,15,03,13.90
2014,04,28,15,04,14.00
2014,04,28,15,05,14.00
2014,04,28,15,06,14.00
2014,04,28,15,07,13.90
2014,04,28,15,08,14.00
2014,04,28,15,09,14.00
2014,04,28,15,10,14.00
2014,04,28,15,11,14.10
2014,04,28,15,12,14.10
2014,04,28,15,13,14.10
2014,04,28,15,14,14.10
2014,04,28,15,15,14.20
2014,04,28,15,16,14.20
2014,04,28,15,17,14.20
2014,04,28,15,18,14.20
2014,04,28,15,19,14.20
2014,04,28,15,20,14.30
2014,04,28,15,21,14.30
2014,04,28,15,22,14.30
2014,04,28,15,23,14.30
2014,04,28,15,24,14.30
2014,04,28,15,25,14.30
2014,04,28,15,26,14.20
2014,04,28,15,27,14.20
2014,04,28,15,28,14.20
2014,04,28,15,29,14.20
2014,04,28,15,30,14.20
2014,04,28,15,31,14.20
2014,04,28,15,32,14.20
2014,04,28,15,33,14.20
2014,04,28,15,34,14.20
2014,04,28,15,35,14.20
2014,04,28,15,36,14.20
2014,04,28,15,37,14.20
2014,04,28,15,38,14.20
2014,04,28,15,39,14.20
2014,04,28,15,40,14.10
2014,04,28,15,41,14.10
2014,04,28,15,42,14.10
2014,04,28,15,43,14.10
2014,04,28,15,44,14.10
2014,04,28,15,45,14.10
2014,04,28,15,46,14.10
2014,04,28,15,47,14.10
2014,04,28,15,48,14.10
2014,04,28,15,49,14.20
2014,04,28,15,50,14.20
2014,04,28,15,51,14.20
2014,04,28,15,52,14.20
2014,04,28,15,53,14.30
2014,04,28,15,54,14.30
2014,04,28,15,55,14.30
2014,04,28,15,56,14.40
2014,04,28,15,57,14.50
2014,04,28,15,58,14.50
2014,04,28,15,59,14.50
2014,04,28,16,00,14.50
2014,04,28,16,01,14.40
2014,04,28,16,02,14.40
2014,04,28,16,03,14.40
2014,04,28,16,04,14.40
2014,04,28,16,05,14.40
2014,04,28,16,06,14.40
2014,04,28,16,07,14.40
2014,04,28,16,08,14.30
2014,04,28,16,09,14.40
2014,04,28,16,10,14.40
2014,04,28,16,11,14.40
2014,04,28,16,12,14.50
2014,04,28,16,13,14.50
2014,04,28,16,14,14.50
2014,04,28,16,15,14.60
2014,04,28,16,16,14.60
2014,04,28,16,17,14.60
2014,04,28,16,18,14.60
2014,04,28,16,19,14.50
2014,04,28,16,20,14.60
2014,04,28,16,21,14.50
2014,04,28,16,22,14.40
2014,04,28,16,23,14.30
2014,04,28,16,24,14.30
2014,04,28,16,25,14.30
2014,04,28,16,26,14.30
2014,04,28,16,27,14.30
2014,04,28,16,28,14.30
2014,04,28,16,29,14.20
2014,04,28,16,30,14.20
2014,04,28,16,31,14.20
2014,04,28,16,32,14.20
2014,04,28,16,33,14.30
2014,04,28,16,34,14.40
2014,04,28,16,35,14.60
2014,04,28,16,36,14.60
2014,04,28,16,37,14.60
2014,04,28,16,38,14.50
2014,04,28,16,39,14.50
2014,04,28,16,40,14.50
2014,04,28,16,41,14.60
2014,04,28,16,42,14.70
2014,04,28,16,43,14.80
2014,04,28,16,44,14.90
2014,04,28,16,45,14.90
2014,04,28,16,46,14.80
2014,04,28,16,47,14.80
2014,04,28,16,48,14.80
2014,04,28,16,49,14.80
2014,04,28,16,50,14.80
2014,04,28,16,51,14.80
2014,04,28,16,52,14.70
2014,04,28,16,53,14.80
2014,04,28,16,54,14.80
2014,04,28,16,55,14.80
2014,04,28,16,56,14.90
2014,04,28,16,57,14.90
2014,04,28,16,58,14.90
2014,04,28,16,59,14.80
2014,04,28,17,00,14.90
2014,04,28,17,01,14.80
2014,04,28,17,02,14.70
2014,04,28,17,03,14.60
2014,04,28,17,04,14.60
2014,04,28,17,05,14.60
2014,04,28,17,06,14.50
2014,04,28,17,07,14.50
2014,04,28,17,08,14.50
2014,04,28,17,09,14.50
2014,04,28,17,10,14.50
2014,04,28,17,11,14.50
2014,04,28,17,12,14.50
2014,04,28,17,13,14.50
2014,04,28,17,14,14.60
2014,04,28,17,15,14.60
2014,04,28,17,16,14.70
2014,04,28,17,17,14.70
2014,04,28,17,18,14.80
2014,04,28,17,19,14.80
2014,04,28,17,21,15.00
2014,04,28,17,22,15.00
2014,04,28,17,23,15.00
2014,04,28,17,24,14.90
2014,04,28,17,25,14.80
2014,04,28,17,26,14.90
2014,04,28,17,27,14.90
2014,04,28,17,28,14.90
2014,04,28,17,31,15.00
2014,04,28,17,32,15.00
2014,04,28,17,33,15.00
2014,04,28,17,34,14.90
2014,04,28,17,35,14.80
2014,04,28,17,36,14.80
2014,04,28,17,37,14.80
2014,04,28,17,38,14.80
2014,04,28,17,51,14.80
2014,04,28,21,18,11.20
2014,04,28,21,19,11.20
2014,04,28,21,20,11.20
2014,04,28,21,21,11.20
2014,04,28,21,22,11.20
2014,04,28,21,23,11.20
2014,04,28,21,24,11.20
2014,04,28,21,25,11.10
2014,04,28,21,26,11.10
2014,04,28,21,27,11.10
2014,04,28,21,28,11.10
2014,04,28,21,29,11.10
2014,04,28,21,30,11.10
2014,04,28,21,31,11.10
2014,04,28,21,32,11.10
2014,04,28,21,33,11.00
2014,04,28,21,34,11.00
2014,04,28,21,35,11.00
2014,04,28,21,36,10.90
2014,04,28,21,37,10.90
2014,04,28,21,38,10.90
2014,04,28,21,39,10.90
2014,04,28,21,40,10.90
2014,04,28,21,41,10.80
2014,04,28,21,42,10.80
2014,04,28,21,43,10.80
2014,04,28,21,44,10.80
2014,04,28,21,45,10.80
2014,04,28,21,46,10.80
2014,04,28,21,47,10.80
2014,04,28,21,48,10.80
2014,04,28,21,49,10.80
2014,04,28,21,50,10.70
2014,04,28,21,51,10.70
2014,04,28,21,52,10.70
2014,04,28,21,53,10.70
2014,04,28,21,54,10.70
2014,04,28,21,55,10.70
2014,04,28,21,56,10.70
2014,04,28,21,57,10.70
2014,04,28,21,58,10.70
2014,04,28,21,59,10.70
2014,04,28,22,00,10.60
2014,04,28,22,01,10.60
2014,04,28,22,02,10.60
2014,04,28,22,03,10.60
2014,04,28,22,04,10.60
2014,04,28,22,05,10.60
2014,04,28,22,06,10.60
2014,04,28,22,07,10.50
2014,04,28,22,08,10.50
2014,04,28,22,09,10.50
2014,04,28,22,10,10.50
2014,04,28,22,11,10.40
2014,04,28,22,12,10.40
2014,04,28,22,13,10.40
2014,04,28,22,14,10.40
2014,04,28,22,15,10.40
2014,04,28,22,16,10.40
2014,04,28,22,17,10.40
2014,04,28,22,18,10.30
2014,04,28,22,19,10.30
2014,04,28,22,20,10.30
2014,04,28,22,21,10.30
2014,04,28,22,22,10.30
2014,04,28,22,23,10.30
2014,04,28,22,24,10.30
2014,04,28,22,25,10.30
2014,04,28,22,26,10.30
2014,04,28,22,27,10.30
2014,04,28,22,28,10.30
2014,04,28,22,29,10.30
2014,04,28,22,30,10.30
2014,04,28,22,31,10.30
2014,04,28,22,32,10.30
2014,04,28,22,33,10.30